Time,TemperatureF,DewpointF,PressureIn,WindDirection,WindDirectionDegrees,WindSpeedMPH,WindSpeedGustMPH,Humidity,HourlyPrecipIn,Conditions,Clouds,dailyrainin,SoftwareType,DateUTC
2013-02-07 00:02:00,50.0,-99.9,30.15,WSW,242,6.0,11.0,-999,-99.99,,,-99.99,,2013-02-07 08:02:00,
2013-02-07 00:11:00,50.0,-99.9,30.15,SW,231,4.0,8.0,-999,-99.99,,,-99.99,,2013-02-07 08:11:00,
2013-02-07 00:22:00,50.0,-99.9,30.15,SW,235,7.0,11.0,-999,-99.99,,,-99.99,,2013-02-07 08:22:00,
2013-02-07 00:32:00,50.0,-99.9,30.15,SW,232,9.0,12.0,-999,-99.99,,,-99.99,,2013-02-07 08:32:00,
2013-02-07 00:42:00,50.0,-99.9,30.15,SW,230,7.0,12.0,-999,-99.99,,,-99.99,,2013-02-07 08:42:00,
2013-02-07 00:52:00,50.0,-99.9,30.15,SW,222,6.0,11.0,-999,-99.99,,,-99.99,,2013-02-07 08:52:00,
2013-02-07 01:02:00,50.0,-99.9,30.14,WSW,240,6.0,9.0,-999,-99.99,,,-99.99,,2013-02-07 09:02:00,
2013-02-07 01:11:00,50.0,-99.9,30.14,WSW,249,4.0,7.0,-999,-99.99,,,-99.99,,2013-02-07 09:11:00,
2013-02-07 01:22:00,50.0,-99.9,30.14,SSW,209,3.0,9.0,-999,-99.99,,,-99.99,,2013-02-07 09:22:00,
2013-02-07 01:32:00,50.0,-99.9,30.14,SW,218,5.0,7.0,-999,-99.99,,,-99.99,,2013-02-07 09:32:00,
2013-02-07 01:42:00,50.0,-99.9,30.14,WSW,244,2.0,4.0,-999,-99.99,,,-99.99,,2013-02-07 09:42:00,
2013-02-07 01:52:00,50.0,-99.9,30.14,SW,231,1.0,5.0,-999,-99.99,,,-99.99,,2013-02-07 09:52:00,
2013-02-07 02:02:00,50.0,-99.9,30.14,North,350,1.0,3.0,-999,-99.99,,,-99.99,,2013-02-07 10:02:00,
2013-02-07 02:11:00,50.0,-99.9,30.14,ESE,108,3.0,6.0,-999,-99.99,,,-99.99,,2013-02-07 10:11:00,
2013-02-07 02:22:00,49.0,-99.9,30.14,SE,127,9.0,11.0,-999,-99.99,,,-99.99,,2013-02-07 10:22:00,
2013-02-07 02:32:00,49.0,-99.9,30.14,ESE,119,7.0,10.0,-999,-99.99,,,-99.99,,2013-02-07 10:32:00,
2013-02-07 02:42:00,49.0,-99.9,30.14,SE,127,7.0,9.0,-999,-99.99,,,-99.99,,2013-02-07 10:42:00,
2013-02-07 02:52:00,49.0,-99.9,30.14,SE,132,8.0,9.0,-999,-99.99,,,-99.99,,2013-02-07 10:52:00,
2013-02-07 03:02:00,49.0,-99.9,30.14,SE,135,8.0,10.0,-999,-99.99,,,-99.99,,2013-02-07 11:02:00,
2013-02-07 03:11:00,49.0,-99.9,30.13,SE,133,9.0,11.0,-999,-99.99,,,-99.99,,2013-02-07 11:11:00,
2013-02-07 03:23:00,49.0,-99.9,30.13,SE,136,6.0,8.0,-999,-99.99,,,-99.99,,2013-02-07 11:23:00,
2013-02-07 03:32:00,49.0,-99.9,30.13,SE,136,6.0,8.0,-999,-99.99,,,-99.99,,2013-02-07 11:32:00,
2013-02-07 03:44:00,49.0,-99.9,30.13,SE,132,8.0,9.0,-999,-99.99,,,-99.99,,2013-02-07 11:44:00,
2013-02-07 03:53:00,49.0,-99.9,30.13,SE,135,8.0,11.0,-999,-99.99,,,-99.99,,2013-02-07 11:53:00,
2013-02-07 04:02:00,49.0,-99.9,30.13,SE,135,8.0,11.0,-999,-99.99,,,-99.99,,2013-02-07 12:02:00,
2013-02-07 04:12:00,49.0,-99.9,30.12,SE,142,8.0,10.0,-999,-99.99,,,-99.99,,2013-02-07 12:12:00,
2013-02-07 04:22:00,49.0,-99.9,30.12,SE,140,7.0,10.0,-999,-99.99,,,-99.99,,2013-02-07 12:22:00,
2013-02-07 04:33:00,49.0,-99.9,30.11,SE,137,7.0,10.0,-999,-99.99,,,-99.99,,2013-02-07 12:33:00,
2013-02-07 04:42:00,49.0,-99.9,30.11,SE,132,8.0,11.0,-999,-99.99,,,-99.99,,2013-02-07 12:42:00,
2013-02-07 04:53:00,49.0,-99.9,30.11,SE,131,9.0,10.0,-999,-99.99,,,-99.99,,2013-02-07 12:53:00,
2013-02-07 05:03:00,49.0,-99.9,30.11,SE,139,7.0,11.0,-999,-99.99,,,-99.99,,2013-02-07 13:03:00,
2013-02-07 05:12:00,49.0,-99.9,30.11,SE,138,8.0,11.0,-999,-99.99,,,-99.99,,2013-02-07 13:12:00,
2013-02-07 05:22:00,49.0,-99.9,30.11,SE,126,12.0,14.0,-999,-99.99,,,-99.99,,2013-02-07 13:22:00,
2013-02-07 05:33:00,48.0,-99.9,30.11,SE,124,12.0,15.0,-999,-99.99,,,-99.99,,2013-02-07 13:33:00,
2013-02-07 05:42:00,48.0,-99.9,30.11,SE,126,11.0,13.0,-999,-99.99,,,-99.99,,2013-02-07 13:42:00,
2013-02-07 05:52:00,48.0,-99.9,30.11,SE,126,11.0,13.0,-999,-99.99,,,-99.99,,2013-02-07 13:52:00,
2013-02-07 06:02:00,49.0,-99.9,30.10,SE,129,10.0,14.0,-999,-99.99,,,-99.99,,2013-02-07 14:02:00,
2013-02-07 06:12:00,49.0,-99.9,30.10,SE,136,10.0,12.0,-999,-99.99,,,-99.99,,2013-02-07 14:12:00,
2013-02-07 06:22:00,49.0,-99.9,30.10,SE,137,10.0,15.0,-999,-99.99,,,-99.99,,2013-02-07 14:22:00,
2013-02-07 06:32:00,49.0,-99.9,30.10,SE,137,10.0,15.0,-999,-99.99,,,-99.99,,2013-02-07 14:32:00,
2013-02-07 06:42:00,49.0,-99.9,30.09,SE,131,9.0,12.0,-999,-99.99,,,-99.99,,2013-02-07 14:42:00,
2013-02-07 06:52:00,49.0,-99.9,30.09,SE,136,11.0,16.0,-999,-99.99,,,-99.99,,2013-02-07 14:52:00,
2013-02-07 07:02:00,49.0,-99.9,30.09,SE,128,11.0,14.0,-999,-99.99,,,-99.99,,2013-02-07 15:02:00,
2013-02-07 07:11:00,49.0,-99.9,30.09,SE,130,13.0,15.0,-999,-99.99,,,-99.99,,2013-02-07 15:11:00,
2013-02-07 07:22:00,48.0,-99.9,30.09,SE,129,14.0,16.0,-999,-99.99,,,-99.99,,2013-02-07 15:22:00,
2013-02-07 07:32:00,48.0,-99.9,30.09,SE,129,12.0,15.0,-999,-99.99,,,-99.99,,2013-02-07 15:32:00,
2013-02-07 07:42:00,48.0,-99.9,30.09,SE,130,12.0,16.0,-999,-99.99,,,-99.99,,2013-02-07 15:42:00,
2013-02-07 07:52:00,49.0,-99.9,30.09,SE,129,13.0,16.0,-999,-99.99,,,-99.99,,2013-02-07 15:52:00,
2013-02-07 08:01:00,49.0,-99.9,30.09,SE,134,8.0,10.0,-999,-99.99,,,-99.99,,2013-02-07 16:01:00,
2013-02-07 08:11:00,48.0,-99.9,30.09,SE,136,9.0,13.0,-999,-99.99,,,-99.99,,2013-02-07 16:11:00,
2013-02-07 08:22:00,48.0,-99.9,30.09,SE,130,9.0,11.0,-999,-99.99,,,-99.99,,2013-02-07 16:22:00,
2013-02-07 08:32:00,48.0,-99.9,30.09,SE,124,15.0,17.0,-999,-99.99,,,-99.99,,2013-02-07 16:32:00,
2013-02-07 08:42:00,48.0,-99.9,30.09,ESE,121,17.0,19.0,-999,-99.99,,,-99.99,,2013-02-07 16:42:00,
2013-02-07 08:52:00,48.0,-99.9,30.10,SE,126,10.0,13.0,-999,-99.99,,,-99.99,,2013-02-07 16:52:00,
2013-02-07 09:01:00,48.0,-99.9,30.10,SE,126,12.0,13.0,-999,-99.99,,,-99.99,,2013-02-07 17:01:00,
2013-02-07 09:11:00,47.0,-99.9,30.11,ESE,116,6.0,9.0,-999,-99.99,,,-99.99,,2013-02-07 17:11:00,
2013-02-07 09:22:00,48.0,-99.9,30.12,South,174,4.0,9.0,-999,-99.99,,,-99.99,,2013-02-07 17:22:00,
2013-02-07 09:32:00,47.0,-99.9,30.12,NW,325,14.0,16.0,-999,-99.99,,,-99.99,,2013-02-07 17:32:00,
2013-02-07 09:43:00,48.0,-99.9,30.12,NNW,327,7.0,13.0,-999,-99.99,,,-99.99,,2013-02-07 17:43:00,
2013-02-07 09:52:00,48.0,-99.9,30.12,NNW,342,3.0,5.0,-999,-99.99,,,-99.99,,2013-02-07 17:52:00,
2013-02-07 10:02:00,49.0,-99.9,30.12,West,263,2.0,3.0,-999,-99.99,,,-99.99,,2013-02-07 18:02:00,
2013-02-07 10:12:00,49.0,-99.9,30.12,NNW,342,1.0,2.0,-999,-99.99,,,-99.99,,2013-02-07 18:12:00,
2013-02-07 10:23:00,50.0,-99.9,30.12,WNW,285,1.0,2.0,-999,-99.99,,,-99.99,,2013-02-07 18:23:00,
2013-02-07 10:32:00,50.0,-99.9,30.12,NNW,329,2.0,3.0,-999,-99.99,,,-99.99,,2013-02-07 18:32:00,
2013-02-07 10:42:00,49.0,-99.9,30.12,NNW,341,3.0,4.0,-999,-99.99,,,-99.99,,2013-02-07 18:42:00,
2013-02-07 10:52:00,49.0,-99.9,30.12,North,350,3.0,4.0,-999,-99.99,,,-99.99,,2013-02-07 18:52:00,
2013-02-07 11:02:00,50.0,-99.9,30.12,North,351,3.0,4.0,-999,-99.99,,,-99.99,,2013-02-07 19:02:00,
2013-02-07 11:11:00,52.0,-99.9,30.12,WSW,252,5.0,7.0,-999,-99.99,,,-99.99,,2013-02-07 19:11:00,
2013-02-07 11:22:00,50.0,-99.9,30.12,North,355,4.0,6.0,-999,-99.99,,,-99.99,,2013-02-07 19:22:00,
2013-02-07 11:32:00,50.0,-99.9,30.12,NE,56,4.0,5.0,-999,-99.99,,,-99.99,,2013-02-07 19:32:00,
2013-02-07 11:42:00,52.0,-99.9,30.12,West,266,5.0,11.0,-999,-99.99,,,-99.99,,2013-02-07 19:42:00,
2013-02-07 11:52:00,52.0,-99.9,30.11,WSW,239,5.0,13.0,-999,-99.99,,,-99.99,,2013-02-07 19:52:00,
2013-02-07 12:01:00,52.0,-99.9,30.11,WSW,240,6.0,14.0,-999,-99.99,,,-99.99,,2013-02-07 20:01:00,
2013-02-07 12:11:00,53.0,-99.9,30.11,WSW,255,9.0,15.0,-999,-99.99,,,-99.99,,2013-02-07 20:11:00,
2013-02-07 12:22:00,53.0,-99.9,30.10,West,261,6.0,12.0,-999,-99.99,,,-99.99,,2013-02-07 20:22:00,
2013-02-07 12:32:00,52.0,-99.9,30.10,WSW,237,9.0,17.0,-999,-99.99,,,-99.99,,2013-02-07 20:32:00,
2013-02-07 12:42:00,53.0,-99.9,30.10,WSW,250,10.0,15.0,-999,-99.99,,,-99.99,,2013-02-07 20:42:00,
2013-02-07 12:52:00,52.0,-99.9,30.09,WSW,248,9.0,15.0,-999,-99.99,,,-99.99,,2013-02-07 20:52:00,
2013-02-07 13:02:00,52.0,-99.9,30.09,WSW,258,11.0,19.0,-999,-99.99,,,-99.99,,2013-02-07 21:02:00,
2013-02-07 13:11:00,52.0,-99.9,30.09,WSW,258,12.0,18.0,-999,-99.99,,,-99.99,,2013-02-07 21:11:00,
2013-02-07 13:22:00,53.0,-99.9,30.08,WSW,248,8.0,15.0,-999,-99.99,,,-99.99,,2013-02-07 21:22:00,
2013-02-07 13:32:00,53.0,-99.9,30.08,WSW,245,12.0,18.0,-999,-99.99,,,-99.99,,2013-02-07 21:32:00,
2013-02-07 13:42:00,53.0,-99.9,30.08,WSW,243,10.0,16.0,-999,-99.99,,,-99.99,,2013-02-07 21:42:00,
2013-02-07 13:52:00,52.0,-99.9,30.07,WSW,251,13.0,18.0,-999,-99.99,,,-99.99,,2013-02-07 21:52:00,
2013-02-07 14:02:00,52.0,-99.9,30.07,WSW,257,14.0,19.0,-999,-99.99,,,-99.99,,2013-02-07 22:02:00,
2013-02-07 14:11:00,53.0,-99.9,30.07,WSW,245,13.0,18.0,-999,-99.99,,,-99.99,,2013-02-07 22:11:00,
2013-02-07 14:22:00,52.0,-99.9,30.07,West,260,15.0,18.0,-999,-99.99,,,-99.99,,2013-02-07 22:22:00,
2013-02-07 14:32:00,52.0,-99.9,30.06,WSW,257,12.0,17.0,-999,-99.99,,,-99.99,,2013-02-07 22:32:00,
2013-02-07 14:42:00,52.0,-99.9,30.06,WSW,257,12.0,18.0,-999,-99.99,,,-99.99,,2013-02-07 22:42:00,
2013-02-07 14:52:00,53.0,-99.9,30.06,SW,236,8.0,16.0,-999,-99.99,,,-99.99,,2013-02-07 22:52:00,
2013-02-07 15:02:00,53.0,-99.9,30.05,WSW,251,9.0,21.0,-999,-99.99,,,-99.99,,2013-02-07 23:02:00,
2013-02-07 15:11:00,52.0,-99.9,30.06,WSW,257,12.0,19.0,-999,-99.99,,,-99.99,,2013-02-07 23:11:00,
2013-02-07 15:22:00,52.0,-99.9,30.06,WSW,245,15.0,20.0,-999,-99.99,,,-99.99,,2013-02-07 23:22:00,
2013-02-07 15:32:00,51.0,-99.9,30.06,WSW,250,14.0,20.0,-999,-99.99,,,-99.99,,2013-02-07 23:32:00,
2013-02-07 15:42:00,52.0,-99.9,30.06,WSW,244,13.0,20.0,-999,-99.99,,,-99.99,,2013-02-07 23:42:00,
2013-02-07 15:52:00,51.0,-99.9,30.06,WSW,249,13.0,21.0,-999,-99.99,,,-99.99,,2013-02-07 23:52:00,
2013-02-07 16:02:00,52.0,-99.9,30.06,SW,235,9.0,17.0,-999,-99.99,,,-99.99,,2013-02-08 00:02:00,
2013-02-07 16:11:00,52.0,-99.9,30.06,WSW,250,13.0,19.0,-999,-99.99,,,-99.99,,2013-02-08 00:11:00,
2013-02-07 16:22:00,51.0,-99.9,30.06,WSW,242,13.0,18.0,-999,-99.99,,,-99.99,,2013-02-08 00:22:00,
2013-02-07 16:32:00,52.0,-99.9,30.05,WSW,247,7.0,12.0,-999,-99.99,,,-99.99,,2013-02-08 00:32:00,
2013-02-07 16:42:00,51.0,-99.9,30.05,WSW,242,10.0,16.0,-999,-99.99,,,-99.99,,2013-02-08 00:42:00,
2013-02-07 16:52:00,51.0,-99.9,30.05,West,265,9.0,12.0,-999,-99.99,,,-99.99,,2013-02-08 00:52:00,
2013-02-07 17:02:00,51.0,-99.9,30.05,West,265,9.0,12.0,-999,-99.99,,,-99.99,,2013-02-08 01:02:00,
2013-02-07 17:11:00,51.0,-99.9,30.05,WSW,253,7.0,16.0,-999,-99.99,,,-99.99,,2013-02-08 01:11:00,
2013-02-07 17:21:00,51.0,-99.9,30.05,SW,234,6.0,10.0,-999,-99.99,,,-99.99,,2013-02-08 01:21:00,
2013-02-07 17:32:00,51.0,-99.9,30.04,WSW,256,6.0,13.0,-999,-99.99,,,-99.99,,2013-02-08 01:32:00,
2013-02-07 17:42:00,51.0,-99.9,30.04,West,260,4.0,9.0,-999,-99.99,,,-99.99,,2013-02-08 01:42:00,
2013-02-07 17:52:00,51.0,-99.9,30.04,West,261,5.0,11.0,-999,-99.99,,,-99.99,,2013-02-08 01:52:00,
2013-02-07 18:01:00,50.0,-99.9,30.04,WSW,249,8.0,12.0,-999,-99.99,,,-99.99,,2013-02-08 02:01:00,
2013-02-07 18:11:00,50.0,-99.9,30.04,WSW,250,6.0,9.0,-999,-99.99,,,-99.99,,2013-02-08 02:11:00,
2013-02-07 18:22:00,50.0,-99.9,30.04,WSW,255,6.0,9.0,-999,-99.99,,,-99.99,,2013-02-08 02:22:00,
2013-02-07 18:32:00,50.0,-99.9,30.04,WSW,255,6.0,9.0,-999,-99.99,,,-99.99,,2013-02-08 02:32:00,
2013-02-07 18:42:00,50.0,-99.9,30.03,West,259,4.0,10.0,-999,-99.99,,,-99.99,,2013-02-08 02:42:00,
2013-02-07 18:52:00,50.0,-99.9,30.03,WSW,253,4.0,7.0,-999,-99.99,,,-99.99,,2013-02-08 02:52:00,
2013-02-07 19:02:00,50.0,-99.9,30.03,WSW,254,5.0,11.0,-999,-99.99,,,-99.99,,2013-02-08 03:02:00,
2013-02-07 19:12:00,50.0,-99.9,30.03,WSW,257,5.0,8.0,-999,-99.99,,,-99.99,,2013-02-08 03:12:00,
2013-02-07 19:23:00,50.0,-99.9,30.02,West,279,5.0,9.0,-999,-99.99,,,-99.99,,2013-02-08 03:23:00,
2013-02-07 19:32:00,49.0,-99.9,30.03,West,263,7.0,10.0,-999,-99.99,,,-99.99,,2013-02-08 03:32:00,
2013-02-07 19:42:00,47.0,-99.9,30.03,WSW,255,12.0,19.0,-999,-99.99,,,-99.99,,2013-02-08 03:42:00,
2013-02-07 19:52:00,46.0,-99.9,30.04,WSW,247,11.0,17.0,-999,-99.99,,,-99.99,,2013-02-08 03:52:00,
2013-02-07 20:02:00,46.0,-99.9,30.03,SW,225,5.0,10.0,-999,-99.99,,,-99.99,,2013-02-08 04:02:00,
2013-02-07 20:11:00,47.0,-99.9,30.04,WSW,252,3.0,6.0,-999,-99.99,,,-99.99,,2013-02-08 04:11:00,
2013-02-07 20:22:00,47.0,-99.9,30.03,WSW,251,4.0,6.0,-999,-99.99,,,-99.99,,2013-02-08 04:22:00,
2013-02-07 20:32:00,47.0,-99.9,30.03,SW,223,4.0,7.0,-999,-99.99,,,-99.99,,2013-02-08 04:32:00,
2013-02-07 20:42:00,47.0,-99.9,30.03,SW,218,4.0,7.0,-999,-99.99,,,-99.99,,2013-02-08 04:42:00,
2013-02-07 20:52:00,47.0,-99.9,30.02,WSW,239,3.0,7.0,-999,-99.99,,,-99.99,,2013-02-08 04:52:00,
2013-02-07 21:02:00,47.0,-99.9,30.02,WSW,243,5.0,7.0,-999,-99.99,,,-99.99,,2013-02-08 05:02:00,
2013-02-07 21:12:00,47.0,-99.9,30.02,WSW,241,4.0,8.0,-999,-99.99,,,-99.99,,2013-02-08 05:12:00,
2013-02-07 21:22:00,47.0,-99.9,30.02,South,174,3.0,6.0,-999,-99.99,,,-99.99,,2013-02-08 05:22:00,
2013-02-07 21:32:00,47.0,-99.9,30.01,SE,132,5.0,6.0,-999,-99.99,,,-99.99,,2013-02-08 05:32:00,
2013-02-07 21:42:00,47.0,-99.9,30.01,SSE,148,4.0,5.0,-999,-99.99,,,-99.99,,2013-02-08 05:42:00,
2013-02-07 21:52:00,47.0,-99.9,30.01,SSE,152,4.0,8.0,-999,-99.99,,,-99.99,,2013-02-08 05:52:00,
2013-02-07 22:02:00,47.0,-99.9,30.01,SE,137,3.0,9.0,-999,-99.99,,,-99.99,,2013-02-08 06:02:00,
2013-02-07 22:11:00,47.0,-99.9,30.01,SSE,152,1.0,6.0,-999,-99.99,,,-99.99,,2013-02-08 06:11:00,
2013-02-07 22:22:00,47.0,-99.9,30.00,NW,319,0.0,4.0,-999,-99.99,,,-99.99,,2013-02-08 06:22:00,
2013-02-07 22:32:00,47.0,-99.9,30.00,ESE,119,1.0,2.0,-999,-99.99,,,-99.99,,2013-02-08 06:32:00,
2013-02-07 22:42:00,46.0,-99.9,30.00,WNW,288,2.0,5.0,-999,-99.99,,,-99.99,,2013-02-08 06:42:00,
2013-02-07 22:52:00,47.0,-99.9,29.99,WSW,245,4.0,6.0,-999,-99.99,,,-99.99,,2013-02-08 06:52:00,
2013-02-07 23:02:00,47.0,-99.9,29.99,WSW,242,4.0,7.0,-999,-99.99,,,-99.99,,2013-02-08 07:02:00,
2013-02-07 23:12:00,47.0,-99.9,29.99,SW,236,4.0,7.0,-999,-99.99,,,-99.99,,2013-02-08 07:12:00,
2013-02-07 23:22:00,47.0,-99.9,29.99,WSW,238,3.0,7.0,-999,-99.99,,,-99.99,,2013-02-08 07:22:00,
2013-02-07 23:32:00,47.0,-99.9,29.98,WSW,247,3.0,6.0,-999,-99.99,,,-99.99,,2013-02-08 07:32:00,
2013-02-07 23:42:00,47.0,-99.9,29.98,WSW,237,4.0,6.0,-999,-99.99,,,-99.99,,2013-02-08 07:42:00,
2013-02-07 23:52:00,47.0,-99.9,29.98,WSW,237,2.0,5.0,-999,-99.99,,,-99.99,,2013-02-08 07:52:00,